| time (UTC) | temp F | wind direction | speed MPH | gust MPH | rain 1hr in | rain 24hr in | rain mn in | humidity % | barometer mb |
| 20260503203603 | 53 | 345 | 0.0 | 2.0 | 0.05 | 0.20 | 0.20 | 89 | 1012.6 |
| 20260503202703 | 53 | 345 | 0.0 | 2.0 | 0.06 | 0.19 | 0.19 | 88 | 1012.4 |
| 20260503201803 | 53 | 345 | 0.0 | 2.0 | 0.06 | 0.19 | 0.19 | 88 | 1012.3 |
| 20260503200903 | 53 | 345 | 0.0 | 1.0 | 0.05 | 0.17 | 0.17 | 88 | 1012.3 |
| 20260503200003 | 53 | 0 | 0.0 | 0.0 | 0.05 | 0.17 | 0.17 | 88 | 1012.2 |
| 20260503195403 | 53 | 0 | 0.0 | 0.0 | 0.05 | 0.17 | 0.17 | 88 | 1012.1 |
| 20260503194503 | 53 | 345 | 0.0 | 1.0 | 0.06 | 0.17 | 0.17 | 88 | 1012.0 |
| 20260503193603 | 53 | 345 | 0.0 | 1.0 | 0.04 | 0.15 | 0.15 | 88 | 1012.0 |
| 20260503192703 | 53 | 345 | 0.0 | 1.0 | 0.02 | 0.13 | 0.13 | 88 | 1011.9 |
| 20260503191803 | 54 | 0 | 0.0 | 0.0 | 0.02 | 0.13 | 0.13 | 88 | 1011.8 |
| 20260503190903 | 54 | 345 | 0.0 | 3.0 | 0.02 | 0.13 | 0.13 | 88 | 1011.7 |
| 20260503190003 | 54 | 345 | 2.0 | 4.0 | 0.02 | 0.13 | 0.13 | 87 | 1011.7 |
| 20260503185403 | 54 | 345 | 3.0 | 5.0 | 0.01 | 0.12 | 0.12 | 87 | 1011.6 |
| 20260503184503 | 54 | 345 | 3.0 | 4.0 | 0.00 | 0.11 | 0.11 | 87 | 1011.5 |
| 20260503183603 | 54 | 353 | 2.0 | 4.0 | 0.00 | 0.11 | 0.11 | 87 | 1011.4 |
| 20260503182703 | 53 | 83 | 0.0 | 3.0 | 0.00 | 0.11 | 0.11 | 87 | 1011.4 |
| 20260503181803 | 53 | 129 | 0.0 | 1.0 | 0.00 | 0.11 | 0.11 | 87 | 1011.3 |
| 20260503180903 | 53 | 129 | 0.0 | 1.0 | 0.00 | 0.11 | 0.11 | 87 | 1011.4 |
| 20260503180003 | 53 | 129 | 0.0 | 2.0 | 0.00 | 0.11 | 0.11 | 87 | 1011.3 |
| 20260503175403 | 54 | 129 | 0.0 | 1.0 | 0.00 | 0.11 | 0.11 | 87 | 1011.3 |
| 20260503174503 | 53 | 129 | 0.0 | 2.0 | 0.00 | 0.11 | 0.11 | 87 | 1011.3 |
| 20260503173603 | 53 | 129 | 0.0 | 1.0 | 0.00 | 0.11 | 0.11 | 87 | 1011.3 |
| 20260503172703 | 53 | 130 | 0.0 | 1.0 | 0.00 | 0.11 | 0.11 | 88 | 1011.3 |
| 20260503171803 | 53 | 130 | 0.0 | 2.0 | 0.01 | 0.11 | 0.11 | 88 | 1011.2 |
| 20260503170903 | 53 | 130 | 0.0 | 2.0 | 0.01 | 0.11 | 0.11 | 88 | 1011.2 |
| 20260503150903 | 53 | 105 | 4.0 | 8.0 | 0.00 | 0.09 | 0.09 | 88 | 1011.1 |
| 20260503130903 | 52 | 89 | 5.0 | 14.0 | 0.02 | 0.09 | 0.09 | 89 | 1011.1 |
| 20260503080903 | 53 | 9 | 3.0 | 8.0 | 0.00 | 0.00 | 0.00 | 90 | 1010.6 |
| 20260503072703 | 52 | 339 | 4.0 | 7.0 | 0.00 | 0.00 | 0.00 | 90 | 1010.4 |
| 20260503071803 | 52 | 336 | 3.0 | 7.0 | 0.00 | 0.00 | 0.00 | 91 | 1010.4 |
| 20260503070903 | 52 | 336 | 2.0 | 7.0 | 0.00 | 0.00 | 0.00 | 91 | 1010.4 |
| 20260503054503 | 50 | 339 | 6.0 | 8.0 | 0.00 | 0.04 | 0.00 | 90 | 1009.7 |
| 20260503053603 | 50 | 336 | 5.0 | 7.0 | 0.00 | 0.04 | 0.00 | 90 | 1009.7 |
| 20260503052703 | 50 | 336 | 5.0 | 7.0 | 0.00 | 0.04 | 0.00 | 90 | 1009.7 |
| 20260503051803 | 50 | 336 | 6.0 | 8.0 | 0.00 | 0.04 | 0.00 | 90 | 1009.7 |
| 20260503050903 | 49 | 338 | 6.0 | 8.0 | 0.00 | 0.04 | 0.00 | 90 | 1009.7 |
| 20260503050003 | 50 | 336 | 4.0 | 6.0 | 0.00 | 0.04 | 0.00 | 90 | 1009.7 |
| 20260503045403 | 50 | 339 | 3.0 | 5.0 | 0.00 | 0.04 | 0.00 | 90 | 1009.7 |
| 20260503044503 | 49 | 344 | 3.0 | 5.0 | 0.00 | 0.05 | 0.00 | 90 | 1009.8 |
| 20260503043603 | 49 | 335 | 4.0 | 7.0 | 0.00 | 0.05 | 0.00 | 90 | 1009.9 |
| 20260503042703 | 49 | 340 | 4.0 | 6.0 | 0.00 | 0.06 | 0.00 | 90 | 1009.9 |
| 20260503041803 | 49 | 337 | 4.0 | 5.0 | 0.00 | 0.06 | 0.00 | 90 | 1009.9 |
| 20260503040903 | 49 | 337 | 5.0 | 6.0 | 0.00 | 0.07 | 0.00 | 90 | 1009.9 |
| 20260503040003 | 49 | 338 | 4.0 | 6.0 | 0.00 | 0.07 | 0.00 | 90 | 1010.0 |
| 20260503035403 | 49 | 330 | 3.0 | 5.0 | 0.00 | 0.07 | 0.00 | 90 | 1010.0 |
| 20260503034503 | 49 | 332 | 3.0 | 6.0 | 0.00 | 0.08 | 0.00 | 90 | 1010.1 |
| 20260503033603 | 49 | 335 | 5.0 | 7.0 | 0.00 | 0.08 | 0.00 | 90 | 1010.1 |
| 20260503032703 | 49 | 333 | 4.0 | 7.0 | 0.00 | 0.08 | 0.00 | 90 | 1010.1 |
| 20260503031803 | 50 | 333 | 4.0 | 6.0 | 0.00 | 0.08 | 0.00 | 90 | 1010.1 |
| 20260503030903 | 50 | 333 | 5.0 | 7.0 | 0.00 | 0.08 | 0.00 | 90 | 1010.1 |
| 20260503030003 | 50 | 334 | 5.0 | 7.0 | 0.00 | 0.08 | 0.00 | 90 | 1010.0 |
| 20260503025403 | 50 | 335 | 5.0 | 6.0 | 0.00 | 0.08 | 0.00 | 90 | 1010.1 |
| 20260503024503 | 50 | 335 | 5.0 | 8.0 | 0.00 | 0.08 | 0.00 | 90 | 1010.1 |
| 20260503023603 | 50 | 336 | 5.0 | 6.0 | 0.00 | 0.08 | 0.00 | 90 | 1010.2 |
| 20260503022703 | 50 | 333 | 4.0 | 6.0 | 0.00 | 0.08 | 0.00 | 90 | 1010.1 |
| 20260503021803 | 49 | 333 | 2.0 | 4.0 | 0.00 | 0.08 | 0.00 | 90 | 1010.1 |
| 20260503020903 | 49 | 333 | 3.0 | 4.0 | 0.00 | 0.08 | 0.00 | 90 | 1010.1 |
| 20260503020003 | 49 | 333 | 3.0 | 5.0 | 0.00 | 0.08 | 0.00 | 89 | 1010.2 |
| 20260503015403 | 49 | 333 | 3.0 | 5.0 | 0.00 | 0.08 | 0.00 | 89 | 1010.3 |
| 20260503014503 | 50 | 333 | 3.0 | 5.0 | 0.00 | 0.08 | 0.00 | 90 | 1010.4 |
| 20260503013603 | 50 | 333 | 3.0 | 5.0 | 0.00 | 0.08 | 0.00 | 90 | 1010.4 |
| 20260503012703 | 50 | 333 | 3.0 | 5.0 | 0.00 | 0.08 | 0.00 | 90 | 1010.5 |
| 20260503011803 | 50 | 333 | 4.0 | 5.0 | 0.00 | 0.08 | 0.00 | 90 | 1010.6 |
| 20260503010903 | 50 | 333 | 4.0 | 5.0 | 0.00 | 0.08 | 0.00 | 89 | 1010.6 |
| 20260503010003 | 50 | 332 | 4.0 | 6.0 | 0.00 | 0.08 | 0.00 | 89 | 1010.6 |
| 20260503005403 | 50 | 330 | 4.0 | 6.0 | 0.00 | 0.08 | 0.00 | 89 | 1010.7 |
| 20260503004503 | 50 | 334 | 4.0 | 6.0 | 0.00 | 0.09 | 0.00 | 89 | 1010.7 |
| 20260503003603 | 50 | 336 | 4.0 | 6.0 | 0.00 | 0.09 | 0.00 | 89 | 1010.8 |
| 20260503002703 | 50 | 333 | 4.0 | 6.0 | 0.00 | 0.09 | 0.00 | 89 | 1010.8 |
| 20260503001803 | 50 | 325 | 2.0 | 4.0 | 0.00 | 0.09 | 0.00 | 89 | 1010.9 |
| 20260503000903 | 50 | 279 | 1.0 | 3.0 | 0.00 | 0.09 | 0.00 | 89 | 1010.9 |
| 20260503000003 | 50 | 0 | 0.0 | 0.0 | 0.00 | 0.09 | 0.00 | 89 | 1010.9 |
| 20260502235403 | 50 | 0 | 0.0 | 0.0 | 0.00 | 0.09 | 0.00 | 89 | 1011.0 |
| 20260502234503 | 50 | 250 | 0.0 | 1.0 | 0.00 | 0.09 | 0.00 | 89 | 1011.0 |
| 20260502233603 | 49 | 250 | 0.0 | 2.0 | 0.00 | 0.09 | 0.00 | 89 | 1011.1 |
| 20260502232703 | 49 | 250 | 1.0 | 3.0 | 0.00 | 0.09 | 0.00 | 89 | 1011.1 |
| 20260502231803 | 49 | 250 | 0.0 | 3.0 | 0.00 | 0.09 | 0.00 | 89 | 1011.1 |
| 20260502230903 | 49 | 250 | 0.0 | 1.0 | 0.00 | 0.09 | 0.00 | 89 | 1011.1 |
| 20260502230003 | 49 | 250 | 0.0 | 2.0 | 0.00 | 0.10 | 0.00 | 89 | 1011.1 |
| 20260502225403 | 49 | 250 | 0.0 | 2.0 | 0.00 | 0.10 | 0.10 | 89 | 1011.1 |
| 20260502224503 | 49 | 250 | 0.0 | 1.0 | 0.00 | 0.10 | 0.10 | 89 | 1011.2 |
| 20260502223603 | 49 | 250 | 0.0 | 1.0 | 0.00 | 0.10 | 0.10 | 89 | 1011.2 |
| 20260502222703 | 49 | 250 | 0.0 | 1.0 | 0.00 | 0.10 | 0.10 | 88 | 1011.3 |
| 20260502221803 | 49 | 234 | 1.0 | 3.0 | 0.00 | 0.10 | 0.10 | 88 | 1011.3 |
| 20260502220903 | 49 | 222 | 1.0 | 4.0 | 0.00 | 0.10 | 0.10 | 88 | 1011.3 |
| 20260502220003 | 49 | 222 | 0.0 | 2.0 | 0.00 | 0.10 | 0.10 | 88 | 1011.4 |
| 20260502215403 | 49 | 216 | 1.0 | 2.0 | 0.00 | 0.10 | 0.10 | 88 | 1011.3 |
| 20260502214503 | 49 | 188 | 0.0 | 2.0 | 0.00 | 0.10 | 0.10 | 88 | 1011.4 |
| 20260502213603 | 49 | 188 | 0.0 | 2.0 | 0.00 | 0.10 | 0.10 | 88 | 1011.4 |
| 20260502212705 | 49 | 0 | 0.0 | 0.0 | 0.00 | 0.10 | 0.10 | 88 | 1011.4 |
| 20260502211803 | 50 | 0 | 0.0 | 0.0 | 0.00 | 0.10 | 0.10 | 88 | 1011.4 |
| 20260502210903 | 50 | 0 | 0.0 | 0.0 | 0.00 | 0.10 | 0.10 | 87 | 1011.4 |
| 20260502210003 | 50 | 0 | 0.0 | 0.0 | 0.00 | 0.10 | 0.10 | 87 | 1011.4 |
| 20260502205403 | 50 | 0 | 0.0 | 0.0 | 0.00 | 0.10 | 0.10 | 87 | 1011.4 |
| 20260502204503 | 50 | 0 | 0.0 | 0.0 | 0.00 | 0.10 | 0.10 | 87 | 1011.3 |